Temperature
19 17 17 18 18 20 20 20 20 20 21 21 21 21 21 22 22 22 22 22 23 23 23 22 22 21 21 20 20 19 18 18 17 16 16 15 15 14 14 14 14 14 13 13
18 18 19 20 20 20 20 20 20 21 22 22 21 21 21 21 22 23 23 23 23 23 22 22 22 21 21 20 20 19 18 18 17 16 16 15 15 14 14 14 14 13 13 13
19 20 21 21 20 20 20 20 21 21 22 22 21 20 21 21 22 23 24 24 23 23 22 22 21 21 21 20 20 19 19 18 17 16 16 15 15 14 14 14 14 13 13 13
20 21 22 21 21 21 20 21 22 22 21 19 21 19 20 20 21 22 23 23 23 23 23 22 22 21 21 21 20 19 19 18 17 17 16 15 15 14 14 14 14 13 13 13
20 21 21 21 22 22 21 22 22 22 21 19 20 20 19 20 22 22 22 23 24 24 23 23 22 22 21 21 20 19 19 18 17 17 16 15 15 14 14 14 14 13 13 13
21 22 22 22 23 23 23 21 20 18 18 19 20 20 20 19 22 22 22 23 24 24 23 23 22 22 21 20 20 19 19 18 17 17 16 15 15 14 14 14 14 14 13 13
22 22 23 23 23 23 21 19 18 18 17 18 19 20 20 21 22 23 23 24 24 24 23 23 22 21 21 20 20 19 19 18 17 17 16 15 15 15 14 14 14 14 13 13
21 20 22 23 22 22 21 19 18 19 18 18 19 20 20 22 23 24 25 25 24 24 24 23 23 22 21 21 20 19 19 18 18 17 16 16 15 15 14 14 14 14 14 13
20 21 23 23 24 23 22 20 19 18 19 18 19 21 22 23 23 23 24 24 24 24 24 23 23 22 22 21 20 20 19 18 18 17 16 16 15 15 14 14 14 14 14 14
22 22 23 24 24 24 23 21 18 18 19 18 19 20 20 22 22 22 22 23 24 24 24 23 23 22 22 21 21 20 19 19 18 17 16 16 15 15 15 14 14 14 14 14
22 21 22 23 23 23 23 22 19 16 17 18 18 19 20 21 21 21 22 24 24 24 24 24 23 23 22 21 21 20 19 19 18 17 17 16 15 15 15 14 14 14 14 14
21 18 19 21 22 23 22 22 19 19 19 17 17 18 21 20 21 22 23 25 25 25 24 24 23 23 22 21 21 20 19 19 18 18 17 16 16 15 15 15 14 14 14 14
20 19 19 19 20 21 23 23 20 18 17 17 17 19 20 20 21 23 23 24 24 24 24 24 23 22 22 21 21 20 20 19 18 18 17 16 16 15 15 15 15 14 14 14
20 18 18 19 20 20 21 22 22 19 17 18 18 19 20 20 20 21 22 23 23 23 23 23 23 22 22 22 21 21 20 19 19 18 17 17 16 16 15 15 15 14 14 14
19 19 20 20 20 21 22 21 21 20 19 18 19 19 19 19 20 20 21 22 22 22 22 22 22 22 22 21 21 21 20 20 19 18 18 17 17 16 15 15 15 15 14 14
17 19 19 20 20 20 21 21 21 20 20 19 19 19 19 20 20 20 21 21 21 21 21 21 22 21 21 21 21 21 20 20 19 18 18 18 17 16 16 15 15 15 15 15
17 18 18 17 18 19 19 20 21 20 19 19 18 18 18 18 19 19 20 20 20 20 21 21 21 21 21 21 21 21 21 20 19 19 18 18 17 17 16 16 15 15 15 15
17 16 15 16 18 19 19 19 20 19 19 18 18 18 18 18 19 19 19 19 20 20 20 21 21 21 21 21 21 21 20 20 19 19 19 18 17 17 16 16 16 16 15 15
15 16 15 15 17 18 18 19 20 19 18 17 17 17 18 19 19 18 19 19 19 19 20 20 20 21 21 21 21 20 20 20 19 19 19 18 18 17 17 16 16 16 16 15
15 15 15 15 17 17 18 19 20 18 16 17 17 16 17 17 15 16 18 18 18 19 19 20 20 20 20 20 20 20 20 19 19 19 19 19 18 18 17 17 16 16 16 15
16 15 15 15 15 16 17 18 18 17 15 16 16 16 16 15 15 16 17 17 18 18 18 19 19 19 19 19 19 19 19 19 19 19 19 19 18 18 18 17 17 16 16 15
15 15 14 14 15 15 16 17 16 15 16 16 16 16 16 16 16 16 16 17 17 17 17 17 18 18 18 18 19 19 19 19 19 19 19 19 18 18 18 17 17 16 16 15
14 14 13 14 14 15 16 16 16 16 15 15 15 15 15 15 15 15 15 15 16 16 16 16 16 17 17 18 18 18 18 18 18 19 18 18 18 18 18 17 17 16 16 15
13 14 13 13 14 14 15 15 15 15 15 15 15 15 15 14 14 14 14 14 14 15 15 15 15 16 16 17 17 17 17 18 18 18 18 18 18 18 18 17 17 17 16 16
12 13 12 12 12 14 14 14 14 14 14 14 14 14 14 14 14 13 13 13 13 13 14 14 14 14 15 15 16 16 16 17 17 17 17 17 18 18 17 17 17 17 17 16
11 12 12 12 13 12 13 14 14 14 13 13 13 13 13 13 13 13 12 12 12 12 12 12 13 13 13 14 15 15 15 16 16 16 16 17 17 17 17 17 17 17 16 16
Wind_Speed
4 5 4 6 6 5 3 2 2 4 4 3 7 9 10 9 9 10 10 11 13 13 10 10 11 11 11 10 10 9 9 7 5 3 3 2 1 0 0 0 1 2 2 3
5 2 6 6 6 4 2 1 2 5 4 3 5 9 10 9 11 12 12 13 14 11 8 10 10 11 12 11 11 10 10 8 6 4 3 3 2 1 1 1 0 0 0 1
6 5 5 6 6 5 2 4 4 4 4 4 3 8 7 6 6 7 9 10 12 14 15 13 12 11 11 12 12 11 10 9 7 6 4 3 3 3 2 1 1 2 1 0
1 2 5 6 5 5 3 6 5 2 2 4 1 3 9 5 2 6 7 7 10 12 12 13 13 13 13 12 11 11 10 9 8 7 6 5 3 2 3 2 2 2 2 1
3 3 5 5 6 6 6 4 2 1 0 3 3 1 8 4 2 6 7 8 10 11 14 15 15 14 12 11 11 11 10 9 8 7 7 6 4 3 2 1 1 1 2 2
2 3 5 5 4 4 1 4 6 5 4 3 4 2 6 4 6 5 6 7 8 10 12 12 12 10 9 10 10 10 10 9 8 8 7 7 6 4 3 2 1 1 2 2
2 2 2 2 2 2 5 6 5 6 5 5 4 1 7 7 5 6 7 7 8 9 11 11 11 11 11 12 12 11 11 9 8 8 7 7 7 6 6 4 3 2 2 2
2 3 4 3 5 3 3 8 6 2 3 5 6 2 6 6 3 3 4 5 6 9 10 12 14 14 13 13 13 12 12 10 9 9 8 6 6 5 4 5 4 4 4 4
5 4 4 5 4 6 3 3 6 6 0 2 5 5 6 4 3 1 2 3 6 8 10 11 12 13 13 14 14 14 13 10 10 9 8 7 7 6 6 5 4 3 4 4
5 1 2 1 3 1 5 6 5 4 1 2 6 4 4 6 6 5 5 6 8 7 9 10 11 13 13 14 12 12 12 12 10 10 9 7 7 7 6 5 5 4 4 4
4 4 2 2 3 4 1 2 5 4 5 4 2 7 6 7 7 7 8 8 9 9 10 10 11 12 12 11 11 11 11 10 10 10 8 8 7 7 6 6 6 5 4 4
3 5 0 4 6 4 5 5 6 3 2 4 3 7 8 6 6 6 8 8 7 8 8 9 10 9 10 11 11 12 12 11 11 10 9 9 8 7 7 7 6 5 5 4
4 6 4 7 8 5 1 2 5 6 4 4 3 7 6 6 7 6 6 7 5 5 6 6 7 9 11 12 12 12 12 12 11 10 10 9 8 8 8 8 7 6 5 4
4 4 5 5 6 5 5 5 3 4 3 5 8 9 9 9 7 7 6 5 4 3 3 4 6 8 9 10 12 12 12 12 11 11 11 10 10 10 9 8 7 7 6 5
5 2 2 5 5 3 4 6 6 5 8 8 8 6 8 7 4 4 4 5 5 4 3 3 5 6 7 8 10 11 12 11 12 12 12 12 10 9 9 8 8 7 6 6
4 2 3 5 6 6 6 7 6 5 4 5 3 3 6 3 3 5 6 6 6 5 5 5 5 5 6 8 10 11 12 12 12 13 13 11 10 9 9 9 8 7 7 6
2 2 2 4 7 6 6 5 2 2 2 1 2 4 4 4 6 6 7 8 7 7 6 5 5 6 7 8 9 11 13 11 12 13 12 12 11 11 11 10 9 9 8 6
5 4 3 2 3 4 6 3 1 4 5 4 2 3 3 1 2 5 7 7 8 9 9 7 7 7 7 6 6 8 8 11 13 13 13 12 12 12 11 10 10 9 7 7
9 7 4 3 2 6 6 6 3 2 3 6 4 5 6 4 5 7 9 8 7 8 8 7 7 6 5 5 4 5 6 9 11 13 14 13 13 13 12 12 11 9 7 7
5 5 5 4 3 5 5 8 6 5 2 6 5 6 6 6 5 6 11 10 10 10 9 10 8 6 5 5 3 4 7 8 11 14 14 13 13 14 14 14 11 8 7 8
3 2 4 5 5 5 5 7 4 3 3 4 4 5 5 3 3 7 9 9 9 9 10 11 10 8 7 5 2 3 6 10 13 11 11 12 14 15 14 12 10 8 8 8
2 2 2 3 4 6 5 4 3 3 1 1 3 3 3 3 5 7 9 10 11 11 11 11 10 10 8 5 3 5 7 9 8 7 9 11 13 14 12 11 10 9 10 9
1 4 4 5 5 2 3 3 2 2 1 1 2 3 3 4 6 7 8 9 10 11 11 10 10 11 10 7 5 7 8 6 5 7 9 11 11 12 11 13 12 9 9 9
4 2 1 1 2 2 2 3 2 2 1 1 2 2 3 4 5 6 7 8 9 10 10 10 11 12 12 11 9 8 8 5 4 7 9 9 10 10 10 10 11 10 10 10
5 3 2 4 5 3 2 2 1 1 1 2 3 3 3 4 5 5 6 7 8 9 9 9 10 11 13 12 11 10 7 5 5 6 7 7 9 10 9 9 9 11 11 12
6 6 6 7 6 4 6 5 3 2 3 3 3 4 4 4 5 5 6 6 7 9 9 10 11 12 13 13 12 11 8 6 6 5 6 6 6 7 8 7 4 3 6 11
Wind_Direction
127 106 159 185 176 162 163 166 217 253 255 217 240 254 255 232 217 217 216 206 204 203 193 172 165 157 153 153 150 149 145 148 136 117 114 111 123 183 24 241 138 94 62 40
82 169 201 169 172 166 158 175 259 272 257 226 259 269 261 234 221 216 210 207 202 197 181 173 166 160 161 162 159 154 154 156 154 147 151 160 164 191 219 269 303 158 70 23
149 206 178 158 172 186 216 213 228 247 329 340 335 314 299 274 226 218 210 204 194 188 184 179 172 171 166 166 166 163 162 159 157 145 122 90 65 42 27 346 300 287 258 252
165 232 151 158 188 177 232 236 224 241 18 306 53 300 300 299 229 210 208 193 192 187 182 178 175 175 176 175 168 159 159 158 158 148 138 138 144 174 223 227 249 274 255 259
209 190 151 174 211 184 214 228 238 285 110 334 342 176 294 315 222 230 221 203 194 185 181 182 182 181 177 169 164 160 157 159 162 156 151 150 161 192 223 232 251 277 287 282
204 193 176 194 215 192 166 41 25 40 62 342 264 182 279 259 229 227 228 213 201 189 186 184 180 169 165 162 160 159 158 165 167 162 161 166 174 184 193 213 220 257 271 290
11 331 231 170 87 9 80 75 28 9 9 272 284 193 259 268 241 197 197 207 199 184 179 175 171 172 170 168 168 167 164 171 177 172 175 181 186 186 194 204 205 201 215 243
141 281 240 190 166 177 163 133 146 177 251 292 342 327 277 284 254 187 173 180 175 181 184 184 183 181 179 177 174 172 174 177 181 182 188 190 189 186 200 207 199 198 206 219
165 248 260 207 173 146 130 160 170 143 199 333 321 317 322 326 316 266 193 178 191 194 192 192 190 186 183 182 182 180 179 181 186 188 188 193 193 192 201 207 199 198 210 220
143 160 269 197 73 36 155 153 91 95 107 325 320 307 258 266 267 267 247 228 222 212 201 196 193 193 191 189 186 182 181 185 188 187 189 193 196 198 197 194 200 202 211 216
91 116 342 43 184 218 179 100 106 111 144 147 299 288 249 241 246 243 244 237 227 219 210 202 199 197 193 187 184 185 187 186 188 190 191 189 195 198 193 194 203 202 207 211
69 110 136 269 272 212 174 180 146 142 237 165 181 270 280 266 267 255 257 256 240 225 215 207 200 191 189 191 191 191 190 190 192 190 187 191 195 192 192 199 206 203 208 215
86 93 57 352 343 354 335 209 159 141 136 167 190 263 301 331 317 303 293 290 271 249 230 213 200 196 197 198 197 196 195 195 192 186 186 190 194 193 198 203 205 202 205 211
98 101 148 190 237 265 287 287 248 148 176 224 227 249 298 313 311 319 325 319 309 275 244 218 215 215 211 205 202 199 200 196 189 186 188 193 199 199 201 201 200 200 199 199
80 119 216 236 258 267 266 276 269 224 209 207 241 241 269 281 289 314 340 355 4 343 306 251 230 227 225 218 211 205 202 196 190 188 193 200 201 197 197 197 199 199 200 203
53 102 13 327 322 337 313 298 283 260 244 229 235 274 284 295 25 20 8 9 5 342 314 287 266 251 236 226 219 211 205 199 190 193 200 199 193 193 196 198 197 197 203 207
5 107 74 288 311 354 311 283 273 321 327 177 200 262 309 27 31 21 15 12 357 340 326 308 285 260 246 237 222 215 211 197 192 198 200 196 192 194 199 199 194 199 203 201
179 133 145 235 357 260 251 284 128 95 35 33 54 358 2 11 73 43 28 14 356 347 339 323 301 284 266 251 237 220 205 194 197 200 201 198 194 197 196 193 197 202 199 201
176 155 153 150 219 273 300 313 296 166 36 4 27 12 4 352 19 8 1 358 349 342 334 320 306 288 278 271 257 217 204 201 201 205 205 201 196 195 193 197 201 201 197 202
121 127 141 152 186 238 267 303 317 103 51 347 25 26 9 25 23 322 330 342 348 346 345 340 331 327 309 289 274 222 213 206 212 214 211 203 196 195 197 201 200 195 195 202
70 100 172 194 215 250 280 305 29 102 252 319 23 33 28 29 262 287 323 343 346 344 342 347 344 335 314 305 289 254 231 225 225 220 211 202 198 199 200 198 193 190 192 193
194 170 196 162 194 249 317 32 93 202 221 18 29 25 18 339 327 337 343 343 344 345 344 345 343 332 324 321 302 279 256 246 237 221 211 206 203 202 200 192 192 188 186 188
200 187 194 192 211 239 10 77 93 121 94 1 349 334 344 346 340 340 339 338 337 337 336 336 335 331 329 325 306 279 278 275 248 224 219 213 206 203 193 191 191 187 186 191
298 6 122 293 267 325 5 52 60 75 60 327 324 328 344 332 327 330 333 334 335 332 332 331 333 333 328 323 311 289 289 288 256 236 227 216 204 202 197 193 192 191 192 194
254 323 315 276 272 314 323 326 318 341 1 344 326 315 313 314 316 318 323 325 324 325 325 328 326 321 318 319 313 306 306 292 264 251 237 222 209 200 198 196 197 196 201 198
217 214 222 245 242 228 259 267 281 302 311 309 315 319 318 310 307 314 313 314 318 321 322 324 323 320 317 316 316 311 308 297 265 259 246 230 217 204 195 187 185 202 202 202
Height
1500 1506 1511 1509 1509 1509 1512 1515 1516 1509 1501 1503 1503 1500 1494 1492 1493 1494 1494 1496 1497 1499 1502 1504 1506 1508 1510 1511 1512 1512 1513 1513 1513 1513 1513 1513 1512 1512 1511 1510 1509 1508 1506 1505
1505 1507 1502 1503 1506 1508 1510 1514 1513 1507 1499 1501 1502 1499 1491 1489 1489 1488 1490 1491 1493 1496 1500 1502 1504 1506 1507 1508 1509 1510 1511 1511 1512 1512 1512 1512 1511 1511 1510 1509 1509 1507 1506 1504
1504 1502 1499 1503 1507 1509 1510 1512 1510 1508 1501 1498 1502 1503 1493 1486 1485 1486 1487 1487 1489 1492 1495 1498 1501 1503 1505 1506 1507 1508 1509 1510 1510 1510 1510 1510 1510 1510 1510 1509 1508 1507 1505 1504
1501 1497 1498 1503 1506 1507 1513 1502 1503 1504 1510 1515 1508 1522 1501 1490 1486 1484 1484 1486 1487 1489 1492 1495 1497 1500 1502 1504 1506 1507 1508 1508 1509 1509 1509 1509 1509 1509 1508 1508 1507 1506 1505 1504
1502 1498 1499 1503 1501 1500 1503 1497 1500 1503 1509 1516 1512 1519 1510 1493 1491 1486 1484 1484 1485 1487 1489 1492 1494 1497 1500 1502 1504 1505 1506 1507 1507 1508 1508 1508 1508 1508 1507 1507 1507 1506 1505 1504
1497 1494 1495 1496 1494 1495 1496 1501 1505 1511 1518 1528 1515 1518 1514 1500 1490 1485 1483 1483 1484 1486 1488 1490 1492 1496 1498 1500 1502 1503 1504 1505 1506 1506 1506 1506 1506 1506 1506 1506 1506 1505 1504 1504
1501 1496 1493 1492 1496 1496 1500 1516 1532 1534 1538 1532 1513 1514 1511 1491 1484 1482 1481 1482 1483 1485 1486 1488 1491 1493 1496 1497 1499 1500 1502 1503 1504 1504 1504 1505 1505 1505 1505 1505 1505 1504 1504 1503
1510 1511 1495 1492 1495 1500 1502 1514 1533 1541 1540 1532 1516 1515 1503 1486 1482 1481 1481 1481 1482 1483 1485 1486 1488 1490 1492 1494 1496 1498 1499 1500 1501 1502 1503 1503 1504 1504 1504 1504 1504 1503 1503 1502
1509 1508 1491 1489 1489 1494 1502 1510 1512 1526 1528 1533 1525 1510 1496 1486 1485 1484 1483 1482 1482 1483 1483 1484 1486 1488 1490 1491 1493 1494 1496 1498 1499 1500 1501 1501 1502 1502 1502 1503 1503 1502 1502 1502
1495 1503 1494 1489 1490 1491 1495 1502 1516 1524 1535 1541 1531 1519 1512 1495 1489 1485 1483 1482 1481 1481 1482 1482 1483 1485 1487 1488 1490 1492 1494 1495 1496 1497 1498 1499 1500 1501 1501 1501 1501 1501 1501 1501
1491 1503 1501 1495 1497 1499 1497 1501 1511 1525 1529 1539 1540 1528 1497 1492 1487 1485 1482 1480 1480 1479 1479 1479 1480 1482 1484 1486 1487 1489 1491 1492 1494 1495 1496 1497 1498 1499 1499 1500 1500 1500 1500 1500
1493 1505 1511 1502 1493 1489 1493 1498 1508 1523 1526 1530 1536 1526 1488 1487 1484 1482 1480 1478 1477 1477 1477 1477 1478 1479 1481 1482 1484 1485 1487 1489 1490 1492 1493 1494 1496 1497 1497 1498 1498 1499 1499 1499
1494 1506 1520 1518 1509 1498 1495 1494 1500 1510 1520 1528 1532 1519 1487 1486 1484 1481 1480 1477 1476 1475 1475 1475 1476 1477 1477 1478 1480 1482 1483 1485 1487 1489 1490 1491 1493 1494 1495 1496 1496 1497 1497 1497
1491 1505 1516 1522 1515 1504 1501 1496 1495 1505 1519 1521 1516 1507 1493 1488 1484 1481 1479 1477 1475 1474 1474 1474 1474 1474 1475 1475 1476 1478 1479 1482 1484 1485 1487 1488 1489 1491 1492 1493 1494 1495 1495 1495
1494 1505 1503 1503 1500 1497 1497 1496 1495 1499 1503 1510 1503 1500 1493 1487 1484 1481 1479 1476 1475 1473 1473 1473 1472 1472 1472 1473 1473 1474 1475 1477 1479 1481 1483 1484 1486 1487 1489 1490 1491 1492 1493 1493
1498 1503 1503 1504 1497 1497 1497 1493 1492 1493 1493 1496 1495 1495 1487 1484 1482 1480 1478 1476 1475 1473 1472 1471 1470 1470 1469 1469 1469 1470 1471 1473 1475 1476 1478 1480 1482 1484 1485 1487 1488 1489 1490 1490
1502 1505 1510 1514 1505 1501 1505 1494 1491 1492 1491 1492 1497 1494 1486 1484 1482 1481 1479 1477 1476 1474 1472 1470 1468 1467 1466 1466 1465 1465 1466 1468 1470 1471 1473 1475 1477 1479 1481 1483 1484 1485 1486 1487
1501 1506 1513 1516 1510 1515 1503 1488 1488 1490 1491 1490 1489 1488 1485 1484 1483 1482 1480 1478 1476 1473 1471 1468 1466 1465 1463 1463 1462 1462 1463 1464 1465 1467 1468 1471 1473 1474 1477 1479 1480 1482 1483 1484
1493 1502 1512 1518 1517 1511 1498 1489 1487 1490 1496 1492 1490 1488 1485 1483 1480 1480 1480 1478 1476 1473 1471 1468 1466 1463 1461 1460 1459 1458 1459 1459 1461 1462 1463 1465 1467 1469 1472 1473 1475 1477 1478 1480
1493 1498 1509 1516 1515 1515 1502 1488 1483 1487 1499 1494 1490 1489 1486 1483 1488 1485 1480 1478 1475 1472 1469 1466 1463 1461 1459 1457 1456 1455 1455 1455 1455 1456 1458 1460 1462 1464 1466 1468 1470 1472 1474 1475
1501 1504 1510 1513 1514 1507 1494 1487 1485 1500 1503 1494 1491 1490 1488 1487 1489 1485 1480 1477 1474 1471 1468 1465 1462 1459 1457 1455 1453 1452 1451 1450 1450 1451 1453 1454 1456 1458 1460 1463 1465 1467 1469 1470
1503 1506 1508 1511 1514 1509 1492 1489 1494 1497 1494 1493 1491 1490 1488 1487 1485 1482 1479 1475 1472 1469 1466 1463 1460 1457 1455 1453 1451 1448 1447 1446 1446 1446 1447 1448 1449 1452 1454 1457 1459 1461 1463 1464
1501 1501 1502 1503 1504 1496 1492 1492 1492 1492 1491 1491 1489 1488 1486 1484 1482 1479 1477 1474 1470 1467 1464 1461 1458 1454 1452 1450 1448 1445 1443 1442 1441 1441 1441 1442 1443 1445 1447 1450 1452 1454 1456 1458
1499 1496 1497 1498 1495 1493 1492 1491 1491 1491 1490 1489 1488 1486 1484 1482 1479 1477 1474 1471 1468 1465 1462 1458 1455 1451 1448 1446 1444 1441 1439 1437 1436 1435 1435 1435 1437 1438 1440 1442 1445 1447 1449 1451
1498 1496 1497 1497 1494 1491 1490 1490 1489 1488 1487 1485 1484 1483 1481 1479 1476 1474 1471 1468 1465 1462 1458 1455 1452 1448 1444 1441 1438 1436 1434 1432 1430 1429 1429 1429 1430 1431 1432 1435 1437 1439 1441 1443
1492 1493 1495 1493 1489 1490 1488 1487 1486 1484 1483 1481 1480 1478 1477 1475 1472 1470 1467 1465 1462 1458 1455 1451 1448 1444 1440 1436 1433 1431 1428 1426 1424 1423 1422 1422 1423 1424 1425 1427 1429 1431 1434 1437